When you browse on this site, cookies collect data to enhance your experience and personalize the content and advertising you see.
Visit our Privacy Policy to learn more. By continuing to use the site, you agree to this use of cookies and data.
  • In United Kingdom
  • List of Countries
  • For 7 days
  • Water Temperature
  • Satellite Maps
  • Weather Map
  • Weather Widgets
  • user-avatar
    Login

    Hourly Weather Phenian

    Today, 20 June, Thursday

    Time Temperature Precipitation Wind Pressure Humidity
    00:00 +18°C° 0 mm 0 mps 754 mmHg 95%
    01:00 +17°C° 0 mm 0 mps 753 mmHg 96%
    02:00 +17°C° 0 mm 0 mps 753 mmHg 96%
    03:00 +17°C° 0 mm 0 mps 753 mmHg 96%
    04:00 +18°C° 0 mm 0 mps 753 mmHg 95%
    05:00 +18°C° 0 mm 0 mps 754 mmHg 95%
    06:00 +21°C° 0 mm 1 mps 754 mmHg 90%
    07:00 +22°C° 0 mm 1 mps 754 mmHg 84%
    08:00 +23°C° 0 mm 1 mps 754 mmHg 79%
    09:00 +25°C° 0 mm 1 mps 754 mmHg 74%
    10:00 +26°C° 0 mm 2 mps 754 mmHg 69%
    11:00 +27°C° 0 mm 2 mps 753 mmHg 65%
    12:00 +28°C° 0 mm 2 mps 753 mmHg 61%
    13:00 +29°C° 0 mm 2 mps 752 mmHg 56%
    14:00 +30°C° 0 mm 2 mps 752 mmHg 52%
    15:00 +29°C° 0 mm 3 mps 752 mmHg 59%
    16:00 +27°C° 0 mm 4 mps 752 mmHg 65%
    17:00 +26°C° 0 mm 4 mps 752 mmHg 72%
    18:00 +24°C° 0 mm 3 mps 752 mmHg 79%
    19:00 +21°C° 0 mm 2 mps 752 mmHg 86%
    20:00 +21°C° 0 mm 1 mps 752 mmHg 93%
    21:00 +20°C° 0 mm 1 mps 752 mmHg 93%
    22:00 +18°C° 0 mm 0 mps 752 mmHg 94%
    23:00 +18°C° 0 mm 0 mps 753 mmHg 94%

    Tomorrow, 21 June, Friday

    Time Temperature Precipitation Wind Pressure Humidity
    00:00 +18°C° 0 mm 0 mps 753 mmHg 94%
    01:00 +18°C° 0 mm 0 mps 753 mmHg 94%
    02:00 +18°C° 0 mm 0 mps 752 mmHg 94%
    03:00 +18°C° 0 mm 0 mps 752 mmHg 94%
    04:00 +18°C° 0 mm 0 mps 752 mmHg 93%
    05:00 +19°C° 0 mm 0 mps 752 mmHg 92%
    06:00 +19°C° 0 mm 0 mps 752 mmHg 90%
    07:00 +20°C° 0 mm 0 mps 752 mmHg 88%
    08:00 +20°C° 0 mm 0 mps 752 mmHg 86%
    09:00 +23°C° 0.1 mm 1 mps 752 mmHg 81%
    10:00 +24°C° 0.1 mm 1 mps 752 mmHg 76%
    11:00 +25°C° 0.1 mm 2 mps 752 mmHg 71%
    12:00 +26°C° 0.4 mm 2 mps 752 mmHg 70%
    13:00 +27°C° 0.4 mm 2 mps 752 mmHg 68%
    14:00 +27°C° 0.4 mm 2 mps 751 mmHg 66%
    15:00 +27°C° 0.3 mm 2 mps 751 mmHg 65%
    16:00 +27°C° 0.3 mm 2 mps 751 mmHg 65%
    17:00 +27°C° 0.3 mm 1 mps 751 mmHg 64%
    18:00 +25°C° 0.2 mm 1 mps 751 mmHg 71%
    19:00 +24°C° 0.2 mm 1 mps 752 mmHg 77%
    20:00 +22°C° 0.2 mm 1 mps 752 mmHg 83%
    21:00 +22°C° 0 mm 1 mps 752 mmHg 85%
    22:00 +21°C° 0 mm 1 mps 752 mmHg 86%
    23:00 +21°C° 0 mm 1 mps 753 mmHg 87%

    Day after tomorrow, 22 June, Saturday

    Time Temperature Precipitation Wind Pressure Humidity
    00:00 +20°C° 0 mm 1 mps 752 mmHg 88%
    01:00 +20°C° 0 mm 1 mps 752 mmHg 89%
    02:00 +19°C° 0 mm 1 mps 752 mmHg 90%
    03:00 +19°C° 0 mm 1 mps 752 mmHg 89%
    04:00 +19°C° 0 mm 1 mps 752 mmHg 88%
    05:00 +19°C° 0 mm 1 mps 752 mmHg 88%
    06:00 +21°C° 0 mm 1 mps 752 mmHg 81%
    07:00 +23°C° 0 mm 1 mps 753 mmHg 74%
    08:00 +25°C° 0 mm 1 mps 753 mmHg 67%
    09:00 +26°C° 0 mm 1 mps 753 mmHg 62%
    10:00 +27°C° 0 mm 2 mps 752 mmHg 57%
    11:00 +29°C° 0 mm 2 mps 752 mmHg 52%
    12:00 +29°C° 0 mm 2 mps 752 mmHg 50%
    13:00 +30°C° 0 mm 3 mps 751 mmHg 47%
    14:00 +30°C° 0 mm 3 mps 751 mmHg 45%
    15:00 +29°C° 0 mm 3 mps 751 mmHg 49%
    16:00 +29°C° 0 mm 3 mps 751 mmHg 52%
    17:00 +28°C° 0 mm 3 mps 750 mmHg 55%
    18:00 +26°C° 0.5 mm 2 mps 751 mmHg 63%
    19:00 +24°C° 0.5 mm 2 mps 751 mmHg 70%
    20:00 +22°C° 0.5 mm 1 mps 752 mmHg 78%
    21:00 +21°C° 0.7 mm 1 mps 752 mmHg 80%
    22:00 +21°C° 0.7 mm 1 mps 752 mmHg 81%
    23:00 +21°C° 0.7 mm 1 mps 752 mmHg 83%

    23 June, Sunday

    Time Temperature Precipitation Wind Pressure Humidity
    00:00 +20°C° 0 mm 1 mps 752 mmHg 84%
    01:00 +20°C° 0 mm 1 mps 752 mmHg 85%
    02:00 +19°C° 0 mm 1 mps 751 mmHg 86%
    03:00 +19°C° 0 mm 1 mps 752 mmHg 85%
    04:00 +19°C° 0 mm 1 mps 752 mmHg 84%
    05:00 +19°C° 0 mm 1 mps 752 mmHg 82%
    06:00 +19°C° 0 mm 2 mps 752 mmHg 76%
    07:00 +21°C° 0 mm 2 mps 752 mmHg 69%
    08:00 +24°C° 0 mm 2 mps 752 mmHg 63%
    09:00 +26°C° 0 mm 1 mps 752 mmHg 58%
    10:00 +28°C° 0 mm 1 mps 752 mmHg 54%
    11:00 +28°C° 0 mm 0 mps 752 mmHg 49%
    12:00 +30°C° 0 mm 1 mps 752 mmHg 47%
    13:00 +30°C° 0 mm 2 mps 752 mmHg 44%
    14:00 +31°C° 0 mm 2 mps 751 mmHg 42%
    15:00 +30°C° 0 mm 3 mps 751 mmHg 46%
    16:00 +29°C° 0 mm 3 mps 752 mmHg 50%
    17:00 +28°C° 0 mm 3 mps 752 mmHg 54%
    18:00 +26°C° 0.1 mm 3 mps 752 mmHg 61%
    19:00 +24°C° 0.1 mm 2 mps 753 mmHg 68%
    20:00 +21°C° 0.1 mm 2 mps 753 mmHg 76%
    21:00 +21°C° 0 mm 2 mps 754 mmHg 77%
    22:00 +20°C° 0 mm 2 mps 754 mmHg 79%
    23:00 +19°C° 0 mm 2 mps 754 mmHg 81%

    24 June, Monday

    Time Temperature Precipitation Wind Pressure Humidity
    00:00 +19°C° 0 mm 2 mps 754 mmHg 81%
    01:00 +18°C° 0 mm 2 mps 755 mmHg 81%
    02:00 +18°C° 0 mm 2 mps 755 mmHg 82%
    03:00 +17°C° 0 mm 2 mps 755 mmHg 82%
    04:00 +18°C° 0 mm 1 mps 755 mmHg 82%
    05:00 +18°C° 0 mm 1 mps 756 mmHg 82%
    06:00 +19°C° 0 mm 2 mps 756 mmHg 75%
    07:00 +21°C° 0 mm 2 mps 756 mmHg 68%
    08:00 +24°C° 0 mm 2 mps 756 mmHg 61%
    09:00 +26°C° 0 mm 2 mps 756 mmHg 58%
    10:00 +27°C° 0 mm 2 mps 756 mmHg 55%
    11:00 +29°C° 0 mm 2 mps 756 mmHg 52%
    12:00 +30°C° 0 mm 2 mps 756 mmHg 50%
    13:00 +30°C° 0 mm 2 mps 756 mmHg 48%
    14:00 +31°C° 0 mm 1 mps 756 mmHg 46%
    15:00 +30°C° 0 mm 2 mps 756 mmHg 52%
    16:00 +29°C° 0 mm 3 mps 756 mmHg 58%
    17:00 +27°C° 0 mm 4 mps 756 mmHg 64%
    18:00 +25°C° 0 mm 3 mps 756 mmHg 70%
    19:00 +24°C° 0 mm 2 mps 756 mmHg 76%
    20:00 +22°C° 0 mm 1 mps 757 mmHg 82%
    21:00 +22°C° 0 mm 1 mps 757 mmHg 83%
    22:00 +19°C° 0 mm 0 mps 757 mmHg 84%
    23:00 +19°C° 0 mm 0 mps 758 mmHg 85%

    25 June, Tuesday

    Time Temperature Precipitation Wind Pressure Humidity
    00:00 +19°C° 0 mm 0 mps 758 mmHg 86%
    01:00 +18°C° 0 mm 0 mps 758 mmHg 86%
    02:00 +18°C° 0 mm 0 mps 758 mmHg 87%
    03:00 +18°C° 0 mm 0 mps 758 mmHg 87%
    04:00 +18°C° 0 mm 0 mps 758 mmHg 87%
    05:00 +18°C° 0 mm 0 mps 758 mmHg 87%
    06:00 +22°C° 0 mm 1 mps 758 mmHg 79%
    07:00 +24°C° 0 mm 1 mps 758 mmHg 72%
    08:00 +26°C° 0 mm 2 mps 758 mmHg 64%
    09:00 +27°C° 0 mm 2 mps 758 mmHg 59%
    10:00 +28°C° 0 mm 2 mps 758 mmHg 54%
    11:00 +30°C° 0 mm 2 mps 758 mmHg 49%
    12:00 +30°C° 0 mm 3 mps 758 mmHg 49%
    13:00 +30°C° 0 mm 3 mps 757 mmHg 49%
    14:00 +32°C° 0 mm 4 mps 757 mmHg 49%
    15:00 +29°C° 0 mm 4 mps 757 mmHg 52%
    16:00 +28°C° 0 mm 4 mps 757 mmHg 56%
    17:00 +27°C° 0 mm 4 mps 756 mmHg 59%
    18:00 +25°C° 0 mm 3 mps 757 mmHg 65%
    19:00 +24°C° 0 mm 2 mps 757 mmHg 71%
    20:00 +22°C° 0 mm 1 mps 757 mmHg 77%
    21:00 +19°C° 0 mm 0 mps 757 mmHg 78%
    22:00 +19°C° 0 mm 0 mps 758 mmHg 80%
    23:00 +18°C° 0 mm 0 mps 758 mmHg 82%
    Show more